AJ5TT Weather Reports


Display with metric or nautical units.
time (UTC)temp
F
wind
direction
speed
MPH
gust
MPH
rain 1hr
in
rain 24hr
in
rain mn
in
humidity
%
barometer
mb
20260904000103 84 284 0.0 2.0 0.00 0.00 0.00 80 1013.4
20260903234612 84 0 0.0 2.0 0.00 0.00 0.00 80 1013.3
20260903233106 85 0 0.0 2.0 0.00 0.00 0.00 81 1013.3
20260903231609 85 13 0.0 3.0 0.00 0.00 0.00 82 1013.0
20260903230108 85 333 1.0 4.0 0.00 0.00 0.00 82 1012.9
20260903224600 86 34 1.0 4.0 0.00 0.00 0.00 80 1013.2
20260903223056 86 57 2.0 6.0 0.00 0.00 0.00 80 1013.3
20260903221603 86 74 1.0 4.0 0.00 0.00 0.00 80 1013.4
20260903220104 86 67 3.0 6.0 0.00 0.00 0.00 79 1013.6
20260903214600 85 24 1.0 3.0 0.00 0.00 0.00 82 1013.8
20260903213113 85 51 1.0 4.0 0.00 0.00 0.00 82 1014.2
20260903211603 86 28 2.0 5.0 0.00 0.00 0.00 76 1014.3
20260903204559 85 49 0.0 7.0 0.00 0.00 0.00 78 1014.3
20260903203107 84 44 2.0 9.0 0.00 0.00 0.00 79 1014.2
20260903201625 83 42 2.0 8.0 0.00 0.00 0.00 77 1013.8
20260903200104 83 95 2.0 9.0 0.00 0.00 0.00 79 1014.0
20260903194559 85 86 3.0 11.0 0.00 0.00 0.00 72 1014.4
20260903193114 89 53 5.0 11.0 0.00 0.00 0.00 64 1014.5
20260903191603 93 174 1.0 3.0 0.00 0.00 0.00 63 1014.0
20260903190103 93 319 1.0 5.0 0.00 0.00 0.00 68 1014.2
20260903184609 94 287 1.0 6.0 0.00 0.00 0.00 62 1014.2
20260903183106 93 261 1.0 4.0 0.00 0.00 0.00 67 1014.5
20260903181602 92 204 0.0 3.0 0.00 0.00 0.00 68 1014.5
20260903180111 91 38 2.0 5.0 0.00 0.00 0.00 67 1014.9
20260903174558 91 101 2.0 7.0 0.00 0.00 0.00 69 1015.0
20260903173111 91 184 3.0 7.0 0.00 0.00 0.00 68 1015.1
20260903171603 90 205 3.0 8.0 0.00 0.00 0.00 70 1015.2
20260903170104 89 214 1.0 3.0 0.00 0.00 0.00 75 1015.4
20260903164600 87 230 1.0 4.0 0.00 0.00 0.00 76 1015.5
20260903163138 87 242 1.0 3.0 0.00 0.00 0.00 77 1015.4
20260903161606 87 215 0.0 2.0 0.00 0.00 0.00 79 1015.4
20260903160107 85 0 0.0 3.0 0.00 0.00 0.00 80 1015.3
20260903154555 84 11 2.0 4.0 0.00 0.00 0.00 82 1015.3
20260903153105 84 55 1.0 2.0 0.00 0.00 0.00 81 1015.3
20260903151604 84 58 0.0 2.0 0.00 0.00 0.00 83 1015.2
20260903150105 83 59 0.0 2.0 0.00 0.00 0.00 83 1015.2
20260903144557 82 0 0.0 0.0 0.00 0.00 0.00 84 1015.2
20260903143105 82 0 0.0 0.0 0.00 0.00 0.00 84 1015.3
20260903141607 82 0 0.0 0.0 0.00 0.00 0.00 85 1015.4
20260903140105 81 0 0.0 0.0 0.00 0.00 0.00 85 1015.3
20260903134620 81 0 0.0 0.0 0.00 0.00 0.00 85 1015.6
20260903133107 80 0 0.0 0.0 0.00 0.00 0.00 85 1015.5
20260903131604 80 0 0.0 0.0 0.00 0.00 0.00 86 1015.5
20260903130109 80 0 0.0 0.0 0.00 0.00 0.00 86 1015.3
20260903124601 80 234 0.0 4.0 0.00 0.00 0.00 86 1015.3
20260903123108 81 0 1.0 2.0 0.00 0.00 0.00 89 1015.1
20260903121603 81 196 0.0 2.0 0.00 0.00 0.00 89 1014.6
20260903120127 81 209 0.0 2.0 0.00 0.00 0.00 89 1014.6
20260903114608 81 235 0.0 1.0 0.00 0.00 0.00 89 1014.5
20260903113109 82 0 0.0 0.0 0.00 0.00 0.00 89 1014.5
20260903111603 82 0 0.0 0.0 0.00 0.00 0.00 89 1014.5
20260903110101 82 0 0.0 0.0 0.00 0.00 0.00 89 1014.3
20260903104614 82 0 0.0 0.0 0.00 0.00 0.00 88 1014.3
20260903103105 82 0 0.0 0.0 0.00 0.00 0.00 88 1014.3
20260903101602 82 0 0.0 0.0 0.00 0.00 0.00 88 1014.2
20260903100056 82 0 0.0 0.0 0.00 0.00 0.00 87 1014.1
20260903094605 82 0 0.0 0.0 0.00 0.00 0.00 87 1014.0
20260903093104 82 0 0.0 0.0 0.00 0.00 0.00 87 1014.1
20260903091605 82 0 0.0 2.0 0.00 0.00 0.00 86 1014.2
20260903090056 82 0 0.0 2.0 0.00 0.00 0.00 86 1014.2
20260903084604 82 0 0.0 0.0 0.00 0.00 0.00 86 1014.2
20260903083100 82 0 0.0 1.0 0.00 0.00 0.00 86 1014.2
20260903081607 82 0 1.0 3.0 0.00 0.00 0.00 86 1014.0
20260903080104 82 199 1.0 4.0 0.00 0.00 0.00 86 1014.0
20260903074637 82 180 1.0 3.0 0.00 0.00 0.00 86 1013.9
20260903073116 82 0 0.0 3.0 0.00 0.00 0.00 86 1014.0
20260903071606 82 171 0.0 3.0 0.00 0.00 0.00 86 1014.2
20260903070115 83 0 1.0 3.0 0.00 0.00 0.00 86 1014.2
20260903064557 83 202 0.0 2.0 0.00 0.00 0.00 86 1014.5
20260903063110 83 161 0.0 2.0 0.00 0.00 0.00 86 1014.6
20260903061611 83 0 0.0 2.0 0.00 0.00 0.00 86 1014.7
20260903054605 83 155 1.0 4.0 0.00 0.00 0.00 84 1014.9
20260903053107 83 0 1.0 2.0 0.00 0.00 0.00 83 1015.0
20260903051558 83 196 0.0 2.0 0.00 0.00 0.00 83 1015.0
20260903050056 83 0 0.0 2.0 0.00 0.00 0.00 83 1015.2
20260903044603 83 167 0.0 3.0 0.00 0.00 0.00 83 1015.2
20260903043103 83 0 0.0 1.0 0.00 0.00 0.00 82 1015.2
20260903041611 84 168 0.0 3.0 0.00 0.00 0.00 83 1015.1
20260903040107 84 98 0.0 4.0 0.00 0.00 0.00 83 1015.2
20260903034605 84 200 1.0 5.0 0.00 0.00 0.00 82 1015.0
20260903033101 84 182 0.0 2.0 0.00 0.00 0.00 83 1015.2
20260903031611 84 0 0.0 2.0 0.00 0.00 0.00 83 1015.0
20260903030105 84 0 0.0 7.0 0.00 0.00 0.00 83 1014.7
20260903024602 84 82 1.0 4.0 0.00 0.00 0.00 84 1014.5
20260903023106 84 221 0.0 4.0 0.00 0.00 0.00 84 1014.5
20260903021608 84 157 1.0 5.0 0.00 0.00 0.00 84 1014.2
20260903020104 84 194 0.0 4.0 0.00 0.00 0.00 84 1014.0
20260903014625 84 221 0.0 4.0 0.00 0.00 0.00 84 1013.9
20260903013105 84 214 1.0 5.0 0.00 0.00 0.00 83 1013.9
20260903011619 85 209 2.0 5.0 0.00 0.00 0.00 83 1013.7
20260903010112 85 175 2.0 5.0 0.00 0.00 0.00 81 1013.6
20260903004607 85 197 2.0 6.0 0.00 0.00 0.00 80 1013.8
20260903003108 86 0 1.0 8.0 0.00 0.00 0.00 79 1013.8
20260903001606 86 188 4.0 9.0 0.00 0.00 0.00 77 1013.1